Location: Wangen+im+Allg�u
(47.7098°N, 9.8383°E)
Time: 00:30:54
(UTC+02:00)

Envisat - Visible Passes

Search period start: 21 July 2018 00:00
Search period end: 31 July 2018 00:00
Orbit: 764 x 766 km, 98.2° (Epoch: 20 July)

Date Brightness Start Highest point End Pass type
(mag) Time Alt. Az. Time Alt. Az. Time Alt. Az.
23 Jul 5.8 22:00:19 10° WSW 22:02:55 14° W 22:05:33 10° NW visible
26 Jul 5.6 21:48:16 10° SW 21:51:36 17° W 21:54:57 10° NW visible
29 Jul 5.5 21:36:28 10° SW 21:40:19 21° W 21:44:12 10° NW visible
